CLX51 UBBB-RCTP

Flight info

Callsign CLX51
Flight time 7h 44m
Altitude 31000
Route NAMAS N35 RODAR A909 TUNEK B143 KRS B738 NEBIT B476 DARVA/K0950F310 T898 OGOLI N193 SR L163 TISIB L141 KAMUD/K0939S0945 W186 SADAN W187 TUSLI W112 BILDA W619 JSG V67 ALGOT W199 NIRUV B215 GODON W87 TYN B208 HFE R343 UPLEL W95 SAPIN V143 DST R596 SULEM/N0505F310 R596 BERBA B576 BAKER BAKER1B
Aircraft B744/H-SDE3FGHIM1M2RWXY/LB1

Departure

Time 2025-09-05 15:12
Airport Heydar Aliyev International Airport (UBBB)

Arrival

Time 2025-09-05 22:56
Airport Taiwan Taoyuan International Airport (RCTP)
Time Latitude Longitude Altitude Speed Heading
2025-09-05 14:33 40.45842 50.05858 5 ft 0 kts 270°
2025-09-05 14:57 40.45848 50.05975 8 ft 5 kts 241°
2025-09-05 14:58 40.45898 50.06018 7 ft 4 kts 182°
2025-09-05 15:07 40.45838 50.06059 1 ft 10 kts 115°
2025-09-05 15:08 40.45733 50.06105 1 ft 0 kts 178°
2025-09-05 15:08 40.45715 50.06107 0 ft 7 kts 167°
2025-09-05 15:08 40.45653 50.06228 -1 ft 7 kts 89°
2025-09-05 15:09 40.45695 50.06317 -2 ft 2 kts
2025-09-05 15:09 40.45738 50.06320 -2 ft 11 kts
2025-09-05 15:10 40.46583 50.06313 13 ft 123 kts 359°
2025-09-05 15:10 40.48898 50.06320 115 ft 186 kts
2025-09-05 15:11 40.51595 50.05718 1283 ft 200 kts 341°
2025-09-05 15:11 40.54424 50.04880 1892 ft 218 kts 353°
2025-09-05 15:12 40.57749 50.04159 2466 ft 252 kts 352°
2025-09-05 15:12 40.61458 50.03302 3258 ft 276 kts 353°
2025-09-05 15:13 40.65201 50.04625 4751 ft 274 kts 41°
2025-09-05 15:13 40.66966 50.09207 6442 ft 292 kts 87°
2025-09-05 15:14 40.65737 50.14304 7825 ft 295 kts 117°
2025-09-05 15:14 40.63657 50.19041 8026 ft 299 kts 121°
2025-09-05 15:15 40.61498 50.23720 7995 ft 295 kts 121°
2025-09-05 15:15 40.59382 50.28378 7968 ft 296 kts 120°
2025-09-05 15:16 40.57541 50.33266 7921 ft 324 kts 112°
2025-09-05 15:16 40.55723 50.38518 9996 ft 292 kts 117°
2025-09-05 15:17 40.53726 50.43737 11101 ft 333 kts 117°
2025-09-05 15:17 40.51347 50.49614 11903 ft 390 kts 114°
2025-09-05 15:18 40.47548 50.60279 13299 ft 450 kts 112°
2025-09-05 15:19 40.44843 50.67883 14339 ft 458 kts 115°
2025-09-05 15:19 40.43413 50.71658 14887 ft 464 kts 115°
2025-09-05 15:20 40.39049 50.83322 16431 ft 476 kts 114°
2025-09-05 15:20 40.36903 50.91625 17441 ft 487 kts 94°
2025-09-05 15:21 40.37596 51.00420 18345 ft 480 kts 75°
2025-09-05 15:21 40.38355 51.04697 18788 ft 483 kts 72°
2025-09-05 15:22 40.40894 51.17767 20078 ft 498 kts 73°
2025-09-05 15:22 40.42532 51.26635 20871 ft 506 kts 73°
2025-09-05 15:23 40.44158 51.35713 21634 ft 515 kts 74°
2025-09-05 15:23 40.44973 51.40297 21994 ft 517 kts 74°
2025-09-05 15:24 40.45962 51.54489 23057 ft 533 kts 99°
2025-09-05 15:24 40.44281 51.63975 23667 ft 539 kts 104°
2025-09-05 15:25 40.42392 51.73535 24225 ft 543 kts 104°
2025-09-05 15:25 40.40554 51.83243 24803 ft 548 kts 103°
2025-09-05 15:26 40.35989 52.07859 26178 ft 561 kts 104°
2025-09-05 15:29 40.27546 52.52468 29587 ft 563 kts 105°
2025-09-05 15:30 40.13818 52.82603 30949 ft 552 kts 129°
2025-09-05 15:33 40.10954 53.24999 30956 ft 564 kts 66°
2025-09-05 15:34 40.20805 53.58489 30944 ft 566 kts 67°
2025-09-05 15:37 40.33239 54.01849 30943 ft 562 kts 67°
2025-09-05 15:38 40.42782 54.35614 30934 ft 565 kts 67°
2025-09-05 15:41 40.54499 54.77682 30932 ft 568 kts 67°
2025-09-05 15:42 40.63832 55.11712 30915 ft 563 kts 68°
2025-09-05 15:45 40.75672 55.55553 30914 ft 563 kts 68°
2025-09-05 15:46 40.83466 55.84838 30905 ft 565 kts 68°
2025-09-05 15:49 40.96305 56.33851 30893 ft 562 kts 68°
2025-09-05 15:50 41.02913 56.69102 30895 ft 565 kts 80°
2025-09-05 15:53 41.08304 57.15531 30881 ft 565 kts 80°
2025-09-05 15:54 41.12401 57.51671 30879 ft 570 kts 80°
2025-09-05 15:57 41.17509 57.98309 30875 ft 568 kts 80°
2025-09-05 15:59 41.21892 58.39803 30874 ft 566 kts 81°
2025-09-05 16:01 41.26123 58.81317 30869 ft 566 kts 81°
2025-09-05 16:02 41.29699 59.17639 30851 ft 565 kts 81°
2025-09-05 16:05 41.34073 59.65062 32850 ft 579 kts 89°
2025-09-05 16:06 41.32668 60.02333 32853 ft 577 kts 94°
2025-09-05 16:09 41.31119 60.50193 32855 ft 577 kts 86°
2025-09-05 16:10 41.33015 60.87386 32850 ft 575 kts 85°
2025-09-05 16:13 41.35328 61.35098 32870 ft 572 kts 86°
2025-09-05 16:14 41.36991 61.72186 32868 ft 571 kts 86°
2025-09-05 16:17 41.38958 62.19702 32872 ft 570 kts 86°
2025-09-05 16:18 41.40363 62.56718 32868 ft 568 kts 86°
2025-09-05 16:21 41.42154 63.04090 32879 ft 569 kts 86°
2025-09-05 16:22 41.43339 63.39143 32884 ft 564 kts 86°
2025-09-05 16:25 41.44741 63.86456 32892 ft 566 kts 87°
2025-09-05 16:26 41.45659 64.23217 32890 ft 567 kts 88°
2025-09-05 16:29 41.46673 64.70371 32891 ft 565 kts 88°
2025-09-05 16:30 41.47327 65.07043 32891 ft 564 kts 88°
2025-09-05 16:33 41.47994 65.54098 32875 ft 564 kts 88°
2025-09-05 16:34 41.48328 65.90761 32874 ft 564 kts 89°
2025-09-05 16:37 41.48335 66.37623 32871 ft 560 kts 90°
2025-09-05 16:38 41.46349 66.73809 32864 ft 561 kts 101°
2025-09-05 16:41 41.39618 67.19751 32856 ft 561 kts 102°
2025-09-05 16:42 41.34225 67.55357 32855 ft 558 kts 103°
2025-09-05 16:45 41.27813 68.01019 32864 ft 557 kts 97°
2025-09-05 16:46 41.24412 68.36943 32874 ft 562 kts 98°
2025-09-05 16:49 41.20083 68.83217 32885 ft 561 kts 98°
2025-09-05 16:50 41.18545 69.19399 32918 ft 559 kts 92°
2025-09-05 16:53 41.14908 69.65712 32951 ft 559 kts 97°
2025-09-05 16:54 41.11821 70.01611 33031 ft 558 kts 97°
2025-09-05 16:56 41.11166 70.42620 33055 ft 558 kts 84°
2025-09-05 16:58 41.14112 70.83796 32998 ft 556 kts 84°
2025-09-05 17:00 41.16866 71.24886 32928 ft 560 kts 85°
2025-09-05 17:02 41.19474 71.65961 32878 ft 556 kts 85°
2025-09-05 17:04 41.21825 72.05439 32912 ft 556 kts 85°
2025-09-05 17:06 41.24141 72.46542 32958 ft 557 kts 85°
2025-09-05 17:08 41.26311 72.87624 33021 ft 555 kts 86°
2025-09-05 17:10 41.28330 73.28666 33054 ft 556 kts 86°
2025-09-05 17:12 41.30203 73.69706 33058 ft 555 kts 86°
2025-09-05 17:14 41.32327 74.10607 33051 ft 555 kts 84°
2025-09-05 17:16 41.35124 74.51504 33024 ft 556 kts 84°
2025-09-05 17:18 41.37873 74.92601 33027 ft 555 kts 85°
2025-09-05 17:20 41.40468 75.33634 33020 ft 554 kts 85°
2025-09-05 17:22 41.42917 75.74686 33052 ft 555 kts 85°
2025-09-05 17:24 41.45233 76.15727 33113 ft 553 kts 85°
2025-09-05 17:26 41.47393 76.56759 33177 ft 554 kts 86°
2025-09-05 17:28 41.49406 76.97819 33200 ft 553 kts 86°
2025-09-05 17:30 41.51269 77.38809 33204 ft 551 kts 86°
2025-09-05 17:33 41.53186 77.84821 33179 ft 551 kts 87°
2025-09-05 17:34 41.54547 78.20521 33165 ft 550 kts 87°
2025-09-05 17:36 41.55966 78.61348 33137 ft 551 kts 88°
2025-09-05 17:38 41.53074 79.01404 33067 ft 545 kts 109°
2025-09-05 17:40 41.44907 79.40510 32993 ft 547 kts 108°
2025-09-05 17:43 41.35659 79.84400 32963 ft 546 kts 108°
2025-09-05 17:45 41.27269 80.23438 32938 ft 548 kts 108°
2025-09-05 17:47 41.19436 80.60807 32937 ft 546 kts 108°
2025-09-05 17:49 41.11196 80.99649 32938 ft 546 kts 108°
2025-09-05 17:51 41.02829 81.38396 32928 ft 544 kts 108°
2025-09-05 17:52 40.95663 81.72241 32922 ft 545 kts 105°
2025-09-05 17:54 40.88150 82.11217 32926 ft 545 kts 106°
2025-09-05 17:57 40.79656 82.54846 32922 ft 545 kts 106°
2025-09-05 17:58 40.72922 82.88731 32934 ft 547 kts 107°
2025-09-05 18:01 40.64111 83.32261 32926 ft 547 kts 107°
2025-09-05 18:02 40.57158 83.65976 32921 ft 548 kts 107°
2025-09-05 18:05 40.48159 84.09447 32915 ft 546 kts 106°
2025-09-05 18:06 40.41264 84.43210 32917 ft 547 kts 107°
2025-09-05 18:09 40.32216 84.86549 32918 ft 547 kts 107°
2025-09-05 18:10 40.25075 85.20163 32923 ft 545 kts 107°
2025-09-05 18:13 40.15744 85.63309 32923 ft 548 kts 107°
2025-09-05 18:14 40.08379 85.96770 32929 ft 547 kts 107°
2025-09-05 18:17 40.02115 86.40905 32935 ft 552 kts 101°
2025-09-05 18:18 39.97350 86.75204 32937 ft 548 kts 101°
2025-09-05 18:21 39.91068 87.19262 32932 ft 550 kts 101°
2025-09-05 18:22 39.86778 87.48655 32931 ft 550 kts 101°
2025-09-05 18:25 39.79450 87.97646 32923 ft 553 kts 101°
2025-09-05 18:26 39.74190 88.31939 32925 ft 552 kts 102°
2025-09-05 18:29 39.67276 88.75906 32913 ft 552 kts 102°
2025-09-05 18:30 39.62030 89.08528 32924 ft 552 kts 102°
2025-09-05 18:33 39.54807 89.52471 32931 ft 553 kts 102°
2025-09-05 18:34 39.49062 89.86658 32972 ft 556 kts 103°
2025-09-05 18:37 39.41489 90.30766 34963 ft 555 kts 103°
2025-09-05 18:38 39.35505 90.64877 34994 ft 555 kts 103°
2025-09-05 18:41 39.27668 91.08638 35019 ft 557 kts 104°
2025-09-05 18:42 39.21473 91.42647 35018 ft 554 kts 102°
2025-09-05 18:45 39.14902 91.86805 35043 ft 560 kts 101°
2025-09-05 18:46 39.09694 92.21180 35054 ft 557 kts 102°
2025-09-05 18:49 39.13381 92.65489 35050 ft 557 kts 77°
2025-09-05 18:50 39.18143 92.99948 35064 ft 558 kts 78°
2025-09-05 18:52 39.23935 93.42798 35102 ft 562 kts 78°
2025-09-05 18:54 39.28723 93.79183 35103 ft 559 kts 78°
2025-09-05 18:56 39.33824 94.18991 35064 ft 561 kts 78°
2025-09-05 18:58 39.38802 94.58968 35093 ft 561 kts 79°
2025-09-05 19:00 39.43655 94.99089 35104 ft 563 kts 79°
2025-09-05 19:03 39.48952 95.44319 35137 ft 563 kts 79°
2025-09-05 19:05 39.53525 95.84690 35118 ft 566 kts 79°
2025-09-05 19:06 39.57777 96.20038 35129 ft 569 kts 78°
2025-09-05 19:08 39.62868 96.60562 35113 ft 572 kts 78°
2025-09-05 19:10 39.68322 97.01049 35080 ft 566 kts 78°
2025-09-05 19:12 39.73683 97.41610 35045 ft 569 kts 78°
2025-09-05 19:14 39.78409 97.80924 35013 ft 576 kts 79°
2025-09-05 19:16 39.83018 98.22147 34992 ft 575 kts 80°
2025-09-05 19:18 39.82811 98.63669 34992 ft 576 kts 95°
2025-09-05 19:20 39.79783 99.05262 34996 ft 578 kts 97°
2025-09-05 19:22 39.76358 99.46797 34996 ft 579 kts 98°
2025-09-05 19:24 39.72609 99.88326 34985 ft 578 kts 98°
2025-09-05 19:26 39.68701 100.29928 34982 ft 582 kts 99°
2025-09-05 19:28 39.64643 100.71510 34982 ft 581 kts 99°
2025-09-05 19:30 39.60415 101.13245 34988 ft 582 kts 100°
2025-09-05 19:32 39.56037 101.54943 34990 ft 587 kts 100°
2025-09-05 19:34 39.51506 101.96629 34986 ft 584 kts 101°
2025-09-05 19:36 39.46812 102.38380 35001 ft 584 kts 101°
2025-09-05 19:38 39.41238 102.79782 35023 ft 579 kts 114°
2025-09-05 19:40 39.30207 103.18856 35035 ft 578 kts 116°
2025-09-05 19:42 39.18944 103.57709 35039 ft 579 kts 116°
2025-09-05 19:44 39.07534 103.96466 35039 ft 580 kts 117°
2025-09-05 19:46 38.95958 104.35226 35044 ft 579 kts 117°
2025-09-05 19:48 38.84306 104.73685 35057 ft 578 kts 117°
2025-09-05 19:50 38.72668 105.12191 35069 ft 582 kts 113°
2025-09-05 19:53 38.59935 105.55674 35070 ft 581 kts 116°
2025-09-05 19:55 38.48577 105.94278 35068 ft 576 kts 117°
2025-09-05 19:57 38.37643 106.31026 35072 ft 575 kts 117°
2025-09-05 19:58 38.31971 106.66554 35076 ft 589 kts 101°
2025-09-05 20:01 38.27000 107.13016 35094 ft 586 kts 102°
2025-09-05 20:02 38.23003 107.48940 35096 ft 585 kts 102°
2025-09-05 20:04 38.18714 107.89969 35097 ft 585 kts 102°
2025-09-05 20:06 38.14608 108.31019 35104 ft 586 kts 98°
2025-09-05 20:08 38.11128 108.72250 35111 ft 587 kts 99°
2025-09-05 20:10 38.07567 109.13272 35097 ft 583 kts 100°
2025-09-05 20:13 38.03397 109.59135 35103 ft 578 kts 100°
2025-09-05 20:14 38.00049 109.94639 35090 ft 577 kts 101°
2025-09-05 20:17 37.95626 110.39867 35099 ft 573 kts 101°
2025-09-05 20:18 37.92418 110.74851 35110 ft 568 kts 99°
2025-09-05 20:21 37.88476 111.19805 35121 ft 570 kts 99°
2025-09-05 20:22 37.85189 111.54690 35122 ft 566 kts 103°
2025-09-05 20:24 37.81376 111.94385 35119 ft 565 kts 101°
2025-09-05 20:27 37.77044 112.39024 35207 ft 568 kts 101°
2025-09-05 20:29 37.60908 112.66527 35207 ft 485 kts 171°
2025-09-05 20:31 37.34894 112.75240 35208 ft 482 kts 173°
2025-09-05 20:33 37.08830 112.83879 35204 ft 483 kts 172°
2025-09-05 20:35 36.82751 112.92485 35170 ft 486 kts 171°
2025-09-05 20:37 36.56569 113.01063 35180 ft 488 kts 171°
2025-09-05 20:39 36.30297 113.09611 35168 ft 488 kts 170°
2025-09-05 20:41 36.04424 113.20466 35162 ft 491 kts 165°
2025-09-05 20:43 35.79672 113.31523 35154 ft 493 kts 165°
2025-09-05 20:45 35.53866 113.43009 35106 ft 491 kts 165°
2025-09-05 20:46 35.31294 113.53037 35079 ft 494 kts 163°
2025-09-05 20:49 35.02244 113.65905 35070 ft 491 kts 163°
2025-09-05 20:50 34.79415 113.75025 35063 ft 490 kts 167°
2025-09-05 20:53 34.50015 113.85974 35068 ft 500 kts 149°
2025-09-05 20:54 34.30894 114.04377 35057 ft 504 kts 144°
2025-09-05 20:57 34.06128 114.27883 35055 ft 501 kts 143°
2025-09-05 20:58 33.86811 114.46114 35036 ft 504 kts 143°
2025-09-05 21:01 33.62783 114.70416 35027 ft 505 kts 133°
2025-09-05 21:02 33.46725 114.92818 35028 ft 508 kts 131°
2025-09-05 21:06 33.09798 115.43916 35012 ft 505 kts 129°
2025-09-05 21:08 32.91490 115.69012 35586 ft 501 kts 129°
2025-09-05 21:10 32.73595 115.94227 36996 ft 494 kts 128°
2025-09-05 21:13 32.53768 116.22470 36994 ft 494 kts 127°
2025-09-05 21:14 32.38399 116.44581 36987 ft 495 kts 126°
2025-09-05 21:17 32.18628 116.73099 36983 ft 500 kts 126°
2025-09-05 21:18 32.02827 116.95077 36986 ft 502 kts 127°
2025-09-05 21:20 31.84699 117.20218 36980 ft 502 kts 127°
2025-09-05 21:22 31.76111 117.49590 36983 ft 485 kts 91°
2025-09-05 21:24 31.73958 117.81191 36981 ft 484 kts 93°
2025-09-05 21:26 31.71741 118.11532 36969 ft 487 kts 94°
2025-09-05 21:28 31.69562 118.42880 36962 ft 479 kts 95°
2025-09-05 21:30 31.67306 118.74058 36962 ft 479 kts 96°
2025-09-05 21:32 31.60391 119.03245 36958 ft 472 kts 141°
2025-09-05 21:35 31.32650 119.13678 36954 ft 467 kts 166°
2025-09-05 21:37 31.07378 119.21095 36954 ft 469 kts 166°
2025-09-05 21:39 30.82208 119.28418 36963 ft 464 kts 167°
2025-09-05 21:41 30.57228 119.35648 36974 ft 461 kts 167°
2025-09-05 21:43 30.32347 119.42811 36974 ft 460 kts 167°
2025-09-05 21:45 30.07625 119.49892 36970 ft 456 kts 167°
2025-09-05 21:47 29.83000 119.56908 36982 ft 455 kts 168°
2025-09-05 21:49 29.58416 119.63877 36978 ft 452 kts 168°
2025-09-05 21:51 29.35213 119.75767 36981 ft 460 kts 157°
2025-09-05 21:53 29.12215 119.88474 36991 ft 458 kts 157°
2025-09-05 21:55 28.89114 120.01172 37012 ft 462 kts 157°
2025-09-05 21:57 28.65986 120.13821 37030 ft 463 kts 157°
2025-09-05 21:58 28.45665 120.24885 37036 ft 461 kts 156°
2025-09-05 22:00 28.22426 120.37478 37038 ft 461 kts 156°
2025-09-05 22:02 27.99078 120.50069 37020 ft 462 kts 156°
2025-09-05 22:05 27.74794 120.67488 37001 ft 485 kts 117°
2025-09-05 22:06 27.69721 120.93709 36998 ft 490 kts 104°
2025-09-05 22:09 27.63827 121.27529 36992 ft 486 kts 105°
2025-09-05 22:10 27.59408 121.52568 36988 ft 488 kts 105°
2025-09-05 22:13 27.53616 121.86261 36987 ft 484 kts 104°
2025-09-05 22:14 27.49121 122.12248 36998 ft 484 kts 104°
2025-09-05 22:16 27.44069 122.41979 36997 ft 485 kts 96°
2025-09-05 22:18 27.43833 122.72322 37004 ft 483 kts 92°
2025-09-05 22:21 27.24265 122.93337 37008 ft 473 kts 160°
2025-09-05 22:22 27.02153 122.95393 37009 ft 487 kts 208°
2025-09-05 22:25 26.77140 122.75636 36993 ft 489 kts 212°
2025-09-05 22:26 26.57694 122.60290 36992 ft 488 kts 212°
2025-09-05 22:29 26.33034 122.40902 33240 ft 489 kts 212°
2025-09-05 22:31 26.11085 122.23713 29671 ft 471 kts 211°
2025-09-05 22:32 25.92757 122.09739 26820 ft 444 kts 211°
2025-09-05 22:34 25.77806 121.98335 24386 ft 425 kts 211°
2025-09-05 22:35 25.70496 121.92767 23141 ft 418 kts 212°
2025-09-05 22:35 25.65766 121.89089 22324 ft 417 kts 215°
2025-09-05 22:36 25.62126 121.84080 21574 ft 419 kts 235°
2025-09-05 22:36 25.59269 121.78495 20737 ft 416 kts 238°
2025-09-05 22:37 25.56522 121.72878 19997 ft 411 kts 238°
2025-09-05 22:37 25.53748 121.67354 19221 ft 408 kts 237°
2025-09-05 22:38 25.50977 121.61951 18423 ft 403 kts 237°
2025-09-05 22:38 25.48004 121.56761 17640 ft 394 kts 226°
2025-09-05 22:38 25.46250 121.54480 17244 ft 394 kts 226°
2025-09-05 22:39 25.42714 121.49893 16450 ft 386 kts 226°
2025-09-05 22:40 25.37487 121.43182 15296 ft 382 kts 226°
2025-09-05 22:40 25.34023 121.38758 14511 ft 378 kts 226°
2025-09-05 22:41 25.30635 121.34452 13859 ft 366 kts 226°
2025-09-05 22:41 25.27299 121.30227 13192 ft 363 kts 227°
2025-09-05 22:42 25.24051 121.26083 12193 ft 354 kts 227°
2025-09-05 22:42 25.22437 121.24023 12045 ft 355 kts 227°
2025-09-05 22:42 25.19203 121.19901 11263 ft 352 kts 227°
2025-09-05 22:43 25.16061 121.15904 10761 ft 335 kts 227°
2025-09-05 22:44 25.11832 121.10515 10356 ft 284 kts 227°
2025-09-05 22:44 25.09279 121.07266 9847 ft 293 kts 227°
2025-09-05 22:45 25.06651 121.03926 9361 ft 283 kts 227°
2025-09-05 22:45 25.04106 121.00696 8793 ft 278 kts 227°
2025-09-05 22:45 25.02837 120.99092 8492 ft 277 kts 227°
2025-09-05 22:46 25.00326 120.95918 7932 ft 270 kts 227°
2025-09-05 22:46 24.97881 120.92825 7346 ft 269 kts 227°
2025-09-05 22:47 24.95436 120.89733 6765 ft 266 kts 227°
2025-09-05 22:48 24.90721 120.87298 5873 ft 261 kts 173°
2025-09-05 22:48 24.89045 120.87977 5595 ft 260 kts 147°
2025-09-05 22:49 24.88339 120.93114 4799 ft 243 kts 69°
2025-09-05 22:49 24.88956 120.94814 4450 ft 239 kts 72°
2025-09-05 22:50 24.90435 120.99799 4025 ft 217 kts 64°
2025-09-05 22:50 24.91259 121.01176 4044 ft 217 kts 54°
2025-09-05 22:50 24.93239 121.03762 3985 ft 224 kts 50°
2025-09-05 22:51 24.95300 121.06357 3465 ft 223 kts 50°
2025-09-05 22:52 24.97979 121.09759 2729 ft 219 kts 50°
2025-09-05 22:52 25.00224 121.12618 2099 ft 200 kts 50°
2025-09-05 22:53 25.01632 121.14407 1723 ft 174 kts 50°
2025-09-05 22:53 25.02414 121.15402 1487 ft 170 kts 50°
2025-09-05 22:54 25.04772 121.18401 832 ft 167 kts 50°
2025-09-05 22:54 25.05514 121.19344 646 ft 164 kts 49°
2025-09-05 22:54 25.07039 121.21283 234 ft 170 kts 49°
2025-09-05 22:55 25.08535 121.23168 92 ft 143 kts 49°
2025-09-05 22:56 25.09417 121.24294 86 ft 12 kts 67°
2025-09-05 22:56 25.09390 121.24375 86 ft 12 kts 138°
2025-09-05 22:56 25.09338 121.24427 85 ft 5 kts 137°
2025-09-05 22:57 25.09256 121.24462 85 ft 7 kts 155°
2025-09-05 22:57 25.09189 121.24516 86 ft 0 kts 141°